CAPE
0 0 0 0 0 0 0 0 0 0 0 0 0 20 94 94 139 83 25 60 3 0 0 76 547 354 200 162 159 178 45 0 0 0 0 0 0 0 0 0 0 0 0 0
0 0 0 0 0 0 0 0 0 0 0 0 0 33 81 60 40 35 47 64 53 5 0 0 59 307 283 243 203 226 118 1 0 0 1 0 0 0 0 0 0 0 0 0
0 0 0 3 0 0 0 0 0 0 0 0 0 0 48 7 0 0 39 48 74 34 17 43 73 336 300 240 281 167 88 17 0 0 0 0 0 0 0 0 0 0 0 0
0 0 0 0 0 0 0 0 0 0 0 0 0 0 0 0 0 0 7 56 41 29 113 170 249 476 371 289 183 206 145 67 2 0 0 0 0 0 0 0 0 0 0 0
0 0 0 0 4 0 0 0 0 1 0 0 0 0 0 0 0 0 39 39 0 0 190 292 581 646 515 234 208 144 60 45 93 0 0 0 0 0 0 0 0 0 0 0
0 0 0 0 1 0 0 0 0 0 0 0 0 0 0 0 0 0 0 52 0 0 222 402 593 672 417 345 271 15 80 1 0 0 0 0 0 0 0 0 0 0 0 0
0 0 0 0 0 0 8 0 0 0 0 0 0 0 0 0 0 0 0 0 0 49 232 583 524 586 418 232 72 5 0 0 0 0 0 0 0 0 0 0 0 0 0 0
0 0 0 0 0 0 0 0 0 0 0 1 0 0 0 0 0 0 0 0 4 65 378 522 208 2 0 0 0 0 0 0 0 0 0 0 0 0 0 0 0 0 0 0
6 7 0 0 1 0 0 0 0 0 0 0 0 0 0 0 0 0 0 10 189 116 126 20 0 0 0 0 0 0 0 0 0 0 0 0 0 0 0 0 0 0 0 0
0 19 0 9 0 0 0 0 23 6 3 2 0 0 0 0 1 0 0 0 147 0 0 0 0 0 0 0 0 0 0 0 0 0 0 0 0 0 0 0 0 0 0 0
10 0 0 0 0 0 0 0 0 0 0 0 1 0 0 0 0 0 0 0 13 1 0 0 0 0 0 0 0 0 0 0 0 0 0 0 0 0 0 0 0 0 0 0
4 0 0 0 0 0 0 0 0 0 0 0 0 0 0 0 0 0 0 0 0 0 0 0 0 0 0 0 0 0 0 0 0 0 0 0 0 0 0 0 0 0 0 0
0 0 2 0 0 0 0 0 0 0 0 0 0 0 0 0 0 0 0 0 0 0 0 0 0 0 0 0 0 0 0 0 0 0 0 0 0 0 0 0 0 0 0 0
0 0 0 0 0 0 4 1 0 0 0 0 0 0 0 0 0 0 0 0 0 0 0 0 0 0 0 0 0 0 0 0 0 0 0 0 0 0 0 0 0 0 0 0
0 0 0 0 0 0 0 0 2 0 0 0 0 0 0 0 0 0 0 0 0 0 0 0 0 0 0 0 0 0 0 0 0 0 0 0 0 0 0 0 0 0 0 0
0 0 0 0 0 0 0 0 0 0 0 0 0 0 0 0 0 0 0 0 0 0 0 0 0 0 0 0 0 0 0 0 0 0 0 0 0 0 0 0 0 0 0 0
0 0 0 0 0 0 0 0 0 0 0 0 0 0 0 0 0 0 0 0 0 0 0 0 0 0 0 0 0 0 0 0 0 0 0 0 0 0 0 0 0 0 0 0
0 0 0 0 0 0 0 0 0 0 0 0 0 0 0 0 0 0 0 0 0 0 0 0 0 0 0 0 0 0 0 0 0 0 0 0 0 0 0 0 0 0 0 0
0 0 0 0 0 0 0 0 0 0 0 0 0 0 0 0 0 0 0 0 0 0 0 0 0 0 0 0 0 0 0 0 0 0 0 0 0 0 0 0 0 0 0 0
0 0 0 0 0 0 0 0 0 0 0 0 0 0 0 0 0 0 0 0 0 0 0 0 0 0 0 0 0 0 0 0 0 0 0 0 0 0 0 0 0 0 0 0
0 0 0 0 0 0 0 0 0 0 0 0 0 0 0 0 0 0 0 0 0 0 0 0 0 0 0 0 0 0 0 0 0 0 0 0 0 0 0 0 0 0 0 0
0 0 0 0 0 0 0 0 0 0 0 0 0 0 0 0 0 0 0 0 0 0 0 0 0 0 0 0 0 0 0 0 0 0 0 0 0 0 0 0 0 0 0 0
0 0 0 0 0 0 0 0 0 0 0 0 0 0 0 0 0 0 0 0 0 0 0 0 0 0 0 0 0 0 0 0 0 0 0 0 0 0 0 0 0 0 0 0
0 0 0 0 0 0 0 0 0 0 0 0 0 0 0 0 0 0 0 0 0 0 0 0 0 0 0 0 0 0 0 0 0 0 0 0 0 0 0 0 0 0 0 0
0 0 0 0 0 0 0 0 0 0 0 0 0 0 0 0 0 0 0 0 0 0 0 0 0 0 0 0 0 0 0 0 0 0 0 0 0 0 0 0 0 0 0 0
0 0 0 0 0 0 0 0 0 0 0 0 0 0 0 0 0 0 0 0 0 0 0 0 0 0 0 0 0 0 0 0 0 0 0 0 0 0 0 0 0 0 0 0
CIN
-0 -0 -0 -0 -0 -0 -0 -0 -0 -0 -0 -0 -0 -131 -161 -218 -167 -153 -205 -175 -86 -0 -0 -217 -173 -213 -278 -285 -264 -302 -387 -0 -0 -0 -0 -0 -0 -0 -0 -0 -0 -0 -0 -0
-0 -0 -0 -17 -0 -0 -0 -0 -0 -0 -0 -0 -0 -187 -246 -250 -155 -114 -205 -173 -185 -54 -0 -0 -327 -263 -292 -305 -296 -299 -317 -99 -0 -0 -93 -0 -0 -0 -0 -0 -0 -0 -0 -0
-0 -0 -0 -20 -0 -0 -0 -0 -0 -0 -0 -0 -0 -0 -232 -258 -0 -0 -264 -245 -219 -209 -238 -244 -285 -259 -287 -290 -303 -301 -337 -375 -0 -0 -0 -0 -0 -0 -0 -0 -0 -0 -0 -0
-0 -0 -0 -0 -19 -0 -0 -0 -0 -6 -0 -0 -0 -0 -0 -0 -87 -0 -283 -320 -286 -338 -254 -267 -298 -257 -297 -321 -336 -300 -308 -311 -69 -0 -0 -0 -0 -0 -0 -0 -0 -0 -0 -0
-0 -0 -0 -0 -44 -0 -0 -0 -0 -38 -0 -0 -0 -0 -0 -0 -0 -13 -244 -300 -0 -0 -297 -317 -332 -293 -254 -329 -314 -317 -301 -295 -235 -0 -0 -0 -0 -0 -0 -0 -0 -0 -0 -0
-0 -0 -0 -0 -59 -0 -0 -0 -0 -0 -0 -0 -0 -0 -0 -51 -0 -0 -9 -242 -0 -0 -293 -306 -296 -240 -269 -277 -293 -382 -271 -109 -0 -0 -0 -0 -0 -0 -0 -0 -0 -0 -0 -0
-0 -0 -0 -0 -0 -0 -68 -0 -0 -0 -0 -0 -0 -0 -0 -0 -0 -0 -0 -0 -0 -279 -358 -293 -291 -250 -248 -329 -377 -158 -0 -0 -0 -0 -0 -0 -0 -0 -0 -0 -0 -0 -0 -0
-0 -0 -0 -0 -0 -0 -0 -0 -0 -0 -0 -1 -0 -0 -0 -0 -0 -0 -0 -0 -226 -423 -317 -296 -414 -62 -0 -0 -0 -0 -0 -0 -0 -0 -0 -0 -0 -0 -0 -0 -0 -0 -0 -0
-68 -59 -22 -0 -17 -0 -57 -0 -0 -0 -0 -0 -0 -0 -0 -0 -0 -0 -0 -114 -353 -435 -461 -501 -0 -0 -0 -0 -0 -0 -0 -0 -0 -0 -0 -0 -0 -0 -0 -0 -0 -0 -0 -0
-0 -51 -0 -167 -0 -0 -0 -0 -30 -2 -36 -41 -0 -0 -0 -0 -63 -0 -0 -0 -347 -39 -0 -0 -0 -0 -0 -0 -0 -0 -0 -0 -0 -0 -0 -0 -0 -0 -0 -0 -0 -0 -0 -0
-202 -28 -0 -68 -0 -0 -0 -0 -0 -17 -0 -0 -24 -0 -0 -0 -0 -0 -0 -0 -263 -69 -0 -0 -0 -0 -0 -0 -0 -0 -0 -0 -0 -0 -0 -0 -0 -0 -0 -0 -0 -0 -0 -0
-215 -0 -0 -0 -0 -0 -0 -0 -0 -0 -0 -0 -0 -0 -0 -0 -0 -0 -0 -0 -0 -3 -0 -0 -0 -0 -0 -0 -0 -0 -0 -0 -0 -0 -0 -0 -0 -0 -0 -0 -0 -0 -0 -0
-0 -0 -37 -0 -0 -0 -0 -0 -0 -0 -0 -0 -0 -0 -0 -0 -0 -0 -0 -0 -0 -0 -0 -0 -0 -0 -0 -0 -0 -0 -0 -0 -0 -0 -0 -0 -0 -0 -0 -0 -0 -0 -0 -0
-9 -0 -0 -0 -0 -0 -14 -15 -0 -0 -0 -0 -0 -0 -0 -0 -0 -0 -0 -0 -0 -0 -0 -0 -0 -0 -0 -0 -0 -0 -0 -0 -0 -0 -0 -0 -0 -0 -0 -0 -0 -0 -0 -0
-0 -0 -0 -0 -0 -0 -0 -0 -8 -0 -0 -0 -0 -0 -0 -0 -0 -0 -0 -0 -0 -0 -0 -0 -0 -0 -0 -0 -0 -0 -0 -0 -0 -0 -0 -0 -0 -0 -0 -0 -0 -0 -0 -0
-0 -0 -0 -0 -0 -0 -0 -0 -0 -0 -0 -0 -0 -0 -0 -0 -0 -0 -0 -0 -0 -0 -0 -0 -0 -0 -0 -0 -0 -0 -0 -0 -0 -0 -0 -0 -0 -0 -0 -0 -0 -0 -0 -0
-0 -0 -0 -0 -0 -0 -0 -0 -0 -0 -0 -0 -0 -0 -0 -0 -0 -0 -0 -0 -0 -0 -0 -0 -0 -0 -0 -0 -0 -0 -0 -0 -0 -0 -0 -0 -0 -0 -0 -0 -0 -0 -0 -0
-0 -0 -0 -0 -0 -0 -0 -0 -0 -0 -0 -0 -0 -0 -0 -0 -0 -0 -0 -0 -0 -0 -0 -0 -0 -0 -0 -0 -0 -0 -0 -0 -0 -0 -0 -0 -0 -0 -0 -0 -0 -0 -0 -0
-0 -0 -0 -0 -0 -0 -0 -0 -0 -0 -0 -0 -0 -0 -0 -0 -0 -0 -0 -0 -0 -0 -0 -0 -0 -0 -0 -0 -0 -0 -0 -0 -0 -0 -0 -0 -0 -0 -0 -0 -0 -0 -0 -0
-0 -0 -0 -0 -0 -0 -0 -0 -0 -0 -0 -0 -0 -0 -0 -0 -0 -0 -0 -0 -0 -0 -0 -0 -0 -0 -0 -0 -0 -0 -0 -0 -0 -0 -0 -0 -0 -0 -0 -0 -0 -0 -0 -0
-0 -0 -0 -0 -0 -0 -0 -0 -0 -0 -0 -0 -0 -0 -0 -0 -0 -0 -0 -0 -0 -0 -0 -0 -0 -0 -0 -0 -0 -0 -0 -0 -0 -0 -0 -0 -0 -0 -0 -0 -0 -0 -0 -0
-0 -0 -0 -0 -0 -0 -0 -0 -0 -0 -0 -0 -0 -0 -0 -0 -0 -0 -0 -0 -0 -0 -0 -0 -0 -0 -0 -0 -0 -0 -0 -0 -0 -0 -0 -0 -0 -0 -0 -0 -0 -0 -0 -0
-0 -0 -0 -0 -0 -0 -0 -0 -0 -0 -0 -0 -0 -0 -0 -0 -0 -0 -0 -0 -0 -0 -0 -0 -0 -0 -0 -0 -0 -0 -0 -0 -0 -0 -0 -0 -0 -0 -0 -0 -0 -0 -0 -0
-0 -0 -0 -0 -0 -0 -0 -0 -0 -0 -0 -0 -0 -0 -0 -0 -0 -0 -0 -0 -0 -0 -0 -0 -0 -0 -0 -0 -0 -0 -0 -0 -0 -0 -0 -0 -0 -0 -0 -0 -0 -0 -0 -0
-0 -0 -0 -0 -0 -0 -0 -0 -0 -0 -0 -0 -0 -0 -0 -0 -0 -0 -0 -0 -0 -0 -0 -0 -0 -0 -0 -0 -0 -0 -0 -0 -0 -0 -0 -0 -0 -0 -0 -0 -0 -0 -0 -0
-0 -0 -0 -0 -0 -0 -0 -0 -0 -0 -0 -0 -0 -0 -0 -0 -0 -0 -0 -0 -0 -0 -0 -0 -0 -0 -0 -0 -0 -0 -0 -0 -0 -0 -0 -0 -0 -0 -0 -0 -0 -0 -0 -0
Wind_Speed
2 5 3 6 6 5 4 9 6 6 11 6 8 8 11 9 8 10 7 5 4 15 15 18 19 17 14 10 14 14 14 11 10 6 5 3 4 3 3 3 6 6 6 6
4 4 6 4 2 4 2 10 8 12 8 6 8 6 9 9 14 12 10 8 10 7 11 14 16 17 16 16 12 11 13 13 10 7 3 3 4 2 4 3 5 6 7 6
5 6 5 1 8 5 6 6 5 4 4 7 7 4 4 6 5 5 5 11 13 17 17 14 18 17 15 15 13 13 13 12 7 8 4 4 5 4 3 2 3 3 6 6
4 2 2 2 3 4 6 9 3 3 4 2 2 2 8 10 12 10 14 11 12 11 11 11 13 15 17 15 9 11 11 11 7 7 7 11 8 8 4 3 3 4 7 7
8 2 3 4 6 3 7 2 3 3 4 3 5 3 7 5 12 14 17 17 13 14 16 15 16 17 13 12 12 11 9 6 6 7 8 8 7 3 4 4 7 6 6 6
7 2 5 6 3 4 5 4 7 5 4 4 5 5 6 5 11 16 13 19 17 12 8 7 11 13 12 9 9 7 8 4 6 7 6 8 11 9 8 5 5 4 4 4
3 1 3 3 4 7 4 6 4 5 5 6 3 3 10 8 10 9 11 10 15 11 12 13 13 11 11 11 9 11 11 5 5 9 8 9 11 10 10 7 5 6 4 3
4 2 3 2 4 1 6 7 7 4 3 4 3 6 8 5 10 7 2 8 7 10 12 13 13 11 11 11 12 13 14 10 7 10 9 7 7 5 4 5 5 4 4 4
4 4 6 3 3 6 7 3 5 8 4 2 4 6 8 5 4 4 7 7 8 9 12 13 11 11 11 9 11 13 14 12 9 9 8 7 6 7 6 6 6 4 4 4
7 1 2 6 2 5 8 4 3 3 4 3 4 6 5 2 2 3 4 9 8 8 9 12 14 13 12 12 11 11 13 15 12 10 8 7 7 7 7 6 7 6 5 4
5 4 4 4 3 7 1 2 2 4 5 6 1 7 6 6 6 8 10 10 12 15 15 16 15 15 14 12 13 14 14 15 13 12 9 10 9 8 8 7 7 7 6 6
8 7 4 11 15 4 4 7 6 7 4 0 5 7 4 8 7 6 9 8 10 15 17 18 17 16 14 14 13 16 14 15 15 12 10 10 9 9 8 8 8 7 7 6
8 1 3 7 6 4 7 6 4 5 4 6 7 7 4 4 6 8 9 9 12 14 13 13 11 15 16 16 15 15 15 14 13 12 11 9 9 9 8 8 8 7 6 6
8 5 9 9 8 3 3 2 4 5 4 5 7 6 7 9 9 8 7 9 10 11 10 12 11 14 15 15 13 10 10 11 12 11 11 11 9 10 9 7 7 7 6 6
7 6 4 5 3 2 1 2 2 5 5 7 9 8 11 6 8 9 7 5 5 6 7 7 8 9 9 8 7 7 10 11 12 12 11 11 10 7 7 7 6 6 6 6
2 4 1 3 2 2 2 5 5 5 3 5 5 6 4 5 7 9 3 8 6 6 3 9 10 9 9 10 9 9 10 12 11 12 11 9 6 8 9 7 6 4 3 1
4 7 4 5 4 4 6 7 7 5 3 4 5 4 4 7 7 5 6 7 7 7 6 4 8 10 9 10 12 13 12 10 11 9 6 8 11 10 7 6 7 6 5 4
7 6 3 3 3 2 9 5 4 8 5 6 8 5 9 9 5 8 6 7 7 5 6 5 1 5 7 7 10 7 8 9 9 8 9 9 10 8 8 7 6 4 3 5
3 6 3 6 4 5 6 3 6 6 1 3 6 6 6 6 6 6 4 6 6 7 7 6 6 6 7 6 7 10 10 11 12 10 10 9 8 10 6 5 4 3 4 3
7 6 6 3 5 7 8 4 2 5 1 5 6 4 6 4 4 4 6 6 9 10 9 9 10 12 14 11 14 17 14 14 13 11 10 9 7 7 5 2 5 5 3 3
4 4 6 2 2 9 9 6 2 7 9 5 7 7 4 4 5 3 9 10 10 10 10 10 13 14 12 11 13 17 15 14 10 9 7 7 4 2 2 5 4 3 2 3
8 7 4 4 3 8 6 3 8 8 4 8 5 5 8 7 9 10 10 10 10 11 11 11 12 12 10 10 13 12 12 8 7 6 5 3 3 1 3 5 4 3 3 4
2 9 8 10 9 6 5 5 5 7 7 5 8 6 9 9 8 9 10 10 10 10 8 7 10 10 8 7 6 8 5 4 4 4 3 1 3 4 4 4 5 3 4 3
2 5 4 5 2 2 5 5 5 5 9 7 6 7 9 13 10 12 10 9 8 6 7 6 8 9 8 8 7 6 5 4 3 2 2 4 4 5 5 4 3 4 3 4
7 7 7 3 1 9 8 6 9 12 12 14 13 11 12 15 12 11 10 9 7 7 6 6 6 6 5 5 5 3 3 2 2 3 4 4 3 5 5 5 5 5 5 6
5 8 6 7 9 6 3 5 7 13 11 10 15 13 12 13 13 12 9 7 6 6 5 5 5 5 4 4 3 3 3 2 3 5 4 4 3 4 4 5 6 8 12 12
Wind_Direction
317 62 239 236 212 254 360 326 277 264 251 136 195 161 180 184 191 189 156 136 195 179 174 174 178 179 176 169 165 162 155 158 148 151 148 141 150 146 106 118 129 108 104 104
29 248 252 305 343 352 337 251 293 287 221 121 152 180 175 186 203 188 165 179 190 187 163 163 173 170 172 171 175 166 166 166 170 163 139 147 134 126 121 128 113 121 109 104
161 225 231 122 284 344 303 243 250 264 61 37 95 51 190 244 303 274 223 206 185 180 177 162 170 170 162 173 169 169 173 174 168 162 125 84 75 69 84 139 127 109 108 106
232 241 158 353 293 201 258 248 270 273 71 143 118 202 195 209 227 219 220 203 206 197 188 156 155 167 168 172 158 165 171 170 181 159 159 163 165 163 168 149 123 98 90 89
247 199 135 266 235 300 230 170 208 343 76 84 349 84 254 195 188 216 224 220 218 211 183 172 165 164 163 163 167 161 168 180 165 180 169 163 142 128 115 112 109 96 84 97
231 212 164 217 303 259 306 40 33 48 74 47 288 125 291 227 222 191 210 213 216 209 172 152 139 150 162 170 164 155 148 160 167 160 159 148 133 130 127 120 117 115 103 79
236 210 290 84 332 2 82 62 352 356 16 210 266 143 233 233 253 233 207 181 198 175 157 153 146 158 158 166 170 156 135 116 124 116 109 128 134 137 141 144 139 139 123 92
167 22 324 81 111 345 276 151 155 222 203 267 285 224 248 260 251 198 210 148 132 145 161 155 157 159 163 160 159 139 136 125 119 112 116 108 109 113 113 125 121 114 122 132
154 224 295 236 134 105 307 246 178 105 356 15 248 284 315 11 358 152 111 118 149 152 154 152 150 154 154 152 148 140 134 130 133 127 121 121 123 123 128 123 117 123 132 122
203 27 227 288 240 165 169 194 67 15 137 240 283 296 251 326 270 245 164 172 175 150 149 158 161 166 165 158 148 139 145 150 153 146 139 140 141 139 137 131 136 140 136 136
128 120 296 298 200 213 47 251 125 120 138 167 174 275 230 220 217 222 233 199 175 174 175 176 176 175 170 162 158 159 158 156 160 158 155 147 153 157 152 149 156 165 156 157
196 143 169 210 224 315 212 227 145 120 231 119 149 265 240 224 207 212 241 206 189 187 186 184 180 174 175 175 166 171 171 169 170 163 155 156 155 162 165 166 172 169 176 176
177 186 67 345 324 277 208 195 178 111 86 193 136 260 289 269 267 201 205 204 197 194 191 187 173 182 185 187 180 177 175 172 164 160 157 160 172 171 174 176 178 178 175 182
126 135 161 186 205 187 239 227 156 128 110 185 215 243 270 260 240 237 202 198 202 201 186 190 187 194 195 194 186 164 162 167 168 166 165 172 178 179 183 175 165 175 178 166
136 167 155 195 196 172 178 305 259 169 193 156 241 207 244 229 238 210 210 130 158 180 179 192 196 201 190 179 169 145 168 175 172 171 173 183 187 176 132 132 139 141 163 185
38 189 175 207 73 62 218 263 265 263 205 231 255 255 300 51 37 43 71 122 112 97 132 199 174 167 180 178 169 170 177 179 175 177 183 181 142 129 133 135 127 144 109 331
122 133 111 236 6 10 353 232 215 234 221 183 208 233 119 54 57 37 42 75 77 77 67 125 181 187 178 174 176 187 181 166 172 164 147 131 132 128 116 111 71 43 14 307
132 105 101 189 39 26 240 282 217 105 34 84 98 93 104 114 101 66 37 87 75 67 60 62 161 186 188 179 185 149 141 138 141 130 121 115 119 117 101 88 83 20 307 285
115 119 100 133 184 291 299 241 177 139 23 333 121 118 133 130 74 32 66 66 74 65 47 50 37 22 46 73 89 94 89 88 82 72 74 68 70 77 59 50 27 280 247 287
67 66 115 130 137 200 238 249 161 105 130 192 137 125 144 126 81 249 65 94 76 63 51 54 49 55 56 52 90 90 87 85 81 81 85 80 79 68 57 11 260 253 244 266
42 17 141 113 189 286 245 244 80 104 224 153 127 136 144 111 176 133 100 73 73 73 66 66 64 66 61 65 83 86 83 83 96 96 82 67 87 136 209 242 252 249 290 321
157 138 181 102 74 275 199 111 156 203 154 140 131 125 98 102 90 93 88 84 76 75 69 67 76 72 73 80 83 86 94 115 124 122 129 176 187 224 253 251 258 256 289 309
170 176 177 171 210 228 233 172 129 146 139 138 123 138 126 114 106 102 92 82 75 73 71 72 89 88 70 66 71 96 94 66 43 76 102 116 268 274 269 264 269 269 281 244
262 152 132 94 332 107 90 61 77 112 117 96 93 117 112 110 105 100 92 89 88 77 80 76 77 77 75 68 71 83 89 97 104 120 285 294 285 281 278 277 258 257 259 258
195 137 154 93 34 80 34 63 111 98 89 85 70 77 99 104 92 100 98 90 81 77 68 72 85 91 91 94 93 106 127 127 332 303 291 291 280 288 287 269 253 251 242 219
183 168 149 210 184 128 126 107 110 104 100 99 103 85 77 95 105 104 96 98 102 98 97 92 99 98 85 63 35 4 335 324 301 296 283 266 269 271 267 269 282 252 246 256